Weather History for Middletown, PA

Change the Weather History Date:

Tuesday, February 12, 2013

  Actual Average Record
Temperature  
Mean Temperature 35 °F 32 °F  
Max Temperature 43 °F 40 °F 74 °F (1999)
Min Temperature 26 °F 24 °F 0 °F (1979)
Degree Days  
Heating Degree Days 30 33  
Month to date heating degree days 427 408  
Since 1 July heating degree days 3294 3497  
Cooling Degree Days 0 0  
Month to date cooling degree days 0 0  
Year to date cooling degree days 0 0  
Moisture  
Dew Point 25 °F    
Average Humidity 65    
Maximum Humidity 85    
Minimum Humidity 45    
Precipitation  
Precipitation 0.00 in 0.08 in 1.84 in (1985)
Month to date precipitation 0.41 1.00  
Year to date precipitation 3.62 3.88  
Snow  
Snow 0.00 in - - ()
Month to date snowfall 1.0  
Since 1 July snowfall 10.8  
Snow Depth 0.00 in    
Sea Level Pressure  
Sea Level Pressure 29.94 in    
Wind  
Wind Speed 10 mph (NW)    
Max Wind Speed 26 mph    
Max Gust Speed 35 mph    
Visibility 10 miles    
Events      
T = Trace of Precipitation, MM = Missing Value Source: NWS Daily Summary

Daily Weather History Graph

Daily Weather History Graph

Search for Another Location

Airport:

Trip Planner

Search our weather history database for the weather conditions in past years. The results will help you decide how hot, cold, wet, or windy it might be!

Date:

Astronomy

Feb. 12, 2013 Rise Set
Actual Time 7:03 AM EST 5:39 PM EST
Civil Twilight 6:35 AM EST 6:07 PM EST
Nautical Twilight 6:03 AM EST 6:39 PM EST
Astronomical Twilight 5:32 AM EST 7:10 PM EST
Moon 7:59 AM EST (2/12) 8:38 PM EST (2/12)
Length of Visible Light 11h 31m
Length of Day
10h 35m
Waxing Crescent, 7% of the Moon is Illuminated
Feb 12
Waxing Crescent
Feb 17
First Quarter
Feb 25
Full
Mar 4
Last Quarter
Mar 11
New

Hourly Weather History & Observations

Time (EST) Temp. Windchill Dew Point Humidity Pressure Visibility Wind Dir Wind Speed Gust Speed Precip Events Conditions
12:56 AM 41.0 °F 38.0 °F 28.9 °F 62% 29.81 in 10.0 mi WNW 4.6 mph - N/A   Mostly Cloudy
1:56 AM 42.1 °F 35.2 °F 27.0 °F 55% 29.82 in 10.0 mi WNW 12.7 mph 18.4 mph N/A   Mostly Cloudy
2:56 AM 42.1 °F 34.9 °F 25.0 °F 51% 29.83 in 10.0 mi West 13.8 mph 27.6 mph N/A   Mostly Cloudy
3:56 AM 41.0 °F - 25.0 °F 53% 29.85 in 10.0 mi Calm Calm - N/A   Overcast
4:56 AM 39.9 °F 33.4 °F 26.1 °F 58% 29.86 in 10.0 mi WNW 10.4 mph 18.4 mph N/A   Overcast
5:56 AM 39.9 °F 32.5 °F 26.1 °F 58% 29.87 in 10.0 mi NW 12.7 mph - N/A   Overcast
6:56 AM 39.2 °F 29.8 °F 24.8 °F 56% 29.89 in 10.0 mi NW 18.4 mph 26.5 mph N/A   Overcast
7:56 AM 39.9 °F 32.1 °F 25.0 °F 55% 29.94 in 10.0 mi NW 13.8 mph - N/A   Overcast
8:56 AM 39.9 °F 31.4 °F 25.0 °F 55% 29.96 in 10.0 mi NW 16.1 mph 27.6 mph N/A   Overcast
9:56 AM 41.0 °F 30.9 °F 25.0 °F 53% 29.98 in 10.0 mi NW 24.2 mph 34.5 mph N/A   Mostly Cloudy
10:56 AM 41.0 °F 31.4 °F 25.0 °F 53% 30.01 in 10.0 mi NW 21.9 mph 31.1 mph N/A   Overcast
11:56 AM 42.1 °F 33.1 °F 24.1 °F 49% 30.01 in 10.0 mi NNW 20.7 mph 27.6 mph N/A   Partly Cloudy
12:56 PM 39.9 °F 31.1 °F 24.1 °F 53% 30.00 in 10.0 mi NW 17.3 mph 24.2 mph N/A   Scattered Clouds
1:56 PM 42.1 °F 34.5 °F 24.1 °F 49% 29.97 in 10.0 mi NW 15.0 mph - N/A   Scattered Clouds
2:56 PM 43.0 °F 35.7 °F 24.1 °F 47% 29.93 in 10.0 mi NNW 15.0 mph - N/A   Partly Cloudy
3:56 PM 42.1 °F 36.6 °F 23.0 °F 47% 29.92 in 10.0 mi NW 9.2 mph - N/A   Partly Cloudy
4:56 PM 39.9 °F 35.8 °F 24.1 °F 53% 29.98 in 10.0 mi NNW 5.8 mph - N/A   Clear
5:56 PM 37.9 °F 35.5 °F 23.0 °F 55% 29.98 in 10.0 mi North 3.5 mph - N/A   Clear
6:56 PM 33.1 °F - 26.1 °F 75% 30.00 in 10.0 mi Calm Calm - N/A   Scattered Clouds
7:56 PM 33.1 °F - 24.1 °F 70% 29.97 in 10.0 mi Calm Calm - N/A   Partly Cloudy
8:56 PM 30.9 °F - 23.0 °F 72% 29.95 in 10.0 mi Calm Calm - N/A   Partly Cloudy
9:56 PM 28.0 °F - 21.9 °F 78% 29.96 in 8.0 mi Calm Calm - N/A   Partly Cloudy
10:56 PM 28.9 °F - 24.1 °F 82% 29.98 in 10.0 mi Calm Calm - N/A   Mostly Cloudy
11:56 PM 26.1 °F - 23.0 °F 88% 29.97 in 9.0 mi Calm Calm - N/A   Mostly Cloudy